This demonstration page uses our WeatherBlox Daily Observations layout. Learn more.

Left ArrowRight Arrow

39.12711, -84.51439

Hourly Observations for September 25, 2022

Temp ( °F °C ) Dew Point ( °F °C ) Humidity (%) Winds ( mph kmh ) Pressure ( in mb ) Visibility ( mi km ) Precip ( " mm )
12:53 am 00:53 Mostly Clear 59 15 58 14.4 96 96 Calm 29.84 1011 8 13 0.00 0.00
1:53 am 01:53 Clear 58 14.4 57 13.9 97 97 Calm 29.82 1010 7 11 0.00 0.00
2:53 am 02:53 Clear 58 14.4 57 13.9 97 97 Calm 29.81 1010 8 13 0.00 0.00
3:53 am 03:53 Clear 61 16.1 59 15 93 93 ESE 3 6 29.79 1009 10 16 0.00 0.00
4:53 am 04:53 Clear 63 17.2 59 15 87 87 Calm 29.76 1008 10 16 0.00 0.00
5:53 am 05:53 Clear 61 16.1 59 15 93 93 Calm 29.74 1007 9 14 0.00 0.00
6:53 am 06:53 Partly Cloudy 61 16.1 59 15 93 93 N 8 13 29.75 1008 9 14 0.00 0.00
7:53 am 07:53 Mostly Cloudy with Light Rain 63 17.2 59 15 87 87 W 3 6 29.76 1008 9 14 0.01 0.13
8:07 am 08:07 Cloudy with Nearby Thunderstorms 65 18.3 59 15 81 81 SW 14 22 29.80 1009 6 10 0.01 0.25
8:16 am 08:16 Cloudy with Thunderstorms 64 17.8 59 15 84 84 SSW 16 26 29.77 1008 3 5 0.03 0.76
8:31 am 08:31 Mostly Cloudy with Light Rain 63 17.2 59 15 87 87 WSW 8 13 29.78 1009 5 8 0.04 1.02
8:53 am 08:53 Mostly Sunny 63 17.2 58 14.4 84 84 SSW 9 15 29.77 1008 8 13 0.04 1.02
9:53 am 09:53 Mostly Sunny 64 17.8 59 15 84 84 SW 8 13 29.78 1009 10 16 0.00 0.00
10:53 am 10:53 Mostly Cloudy 69 20.6 57 13.9 65 65 W 14 22 29.78 1008 10 16 0.00 0.00
11:53 am 11:53 Partly Cloudy 71 21.7 57 13.9 61 61 WSW 12 19 29.78 1008 10 16 0.00 0.00
12:53 pm 12:53 Partly Cloudy 73 22.8 55 12.8 53 53 W 15 24 29.77 1008 10 16 0.00 0.00
1:53 pm 13:53 Partly Cloudy 74 23.3 52 11.1 46 46 W 16 26 29.76 1008 10 16 0.00 0.00
2:53 pm 14:53 Mostly Cloudy 76 24.4 53 11.7 45 45 W 14 22 29.75 1008 10 16 0.00 0.00
3:53 pm 15:53 Partly Cloudy 73 22.8 51 10.6 46 46 WNW 17 28 29.77 1008 10 16 0.00 0.00
4:53 pm 16:53 Mostly Cloudy 73 22.8 50 10 44 44 W 20 31 29.77 1008 10 16 0.00 0.00
5:53 pm 17:53 Cloudy 71 21.7 50 10 47 47 NW 13 20 29.78 1009 10 16 0.00 0.00
6:53 pm 18:53 Partly Cloudy 69 20.6 52 11.1 54 54 WNW 8 13 29.80 1009 10 16 0.01 0.13
7:53 pm 19:53 Clear 67 19.4 51 10.6 57 57 W 8 13 29.80 1009 10 16 0.00 0.00
8:53 pm 20:53 Clear 64 17.8 51 10.6 63 63 WSW 3 6 29.82 1010 10 16 0.00 0.00
9:53 pm 21:53 Clear 63 17.2 51 10.6 65 65 Calm 29.82 1010 10 16 0.00 0.00
10:53 pm 22:53 Clear 60 15.6 52 11.1 75 75 S 5 7 29.82 1010 10 16 0.00 0.00
11:53 pm 23:53 Clear 59 15 52 11.1 77 77 VRB 3 6 29.83 1010 10 16 0.00 0.00

Powered by AerisWeather